This is the latest recevied weather packets stored in our database for station/object N5VIS. If no packets are shown the sender has not sent any weather packets the latest 10 day(s).
| Time | Temp. | Humidity | Pressure | Rain* | Wind** | Luminosity | Snow |
|---|---|---|---|---|---|---|---|
| 1777846112 | 25.56° C | 36% | 1018 hPa | 0 mm | - | - | - |
| 1777845809 | 25.56° C | 35% | 1017.7 hPa | 0 mm | - | - | - |
| 1777845506 | 25° C | 39% | 1017.8 hPa | 0 mm | - | - | - |
| 1777845203 | 25° C | 37% | 1018 hPa | 0 mm | - | - | - |
| 1777844901 | 25.56° C | 37% | 1018 hPa | 0 mm | - | - | - |
| 1777844598 | 25.56° C | 37% | 1017.9 hPa | 0 mm | - | - | - |
| 1777844295 | 26.11° C | 34% | 1017.8 hPa | 0 mm | - | - | - |
| 1777843993 | 25.56° C | 34% | 1018 hPa | 0 mm | - | - | - |
| 1777843690 | 25.56° C | 33% | 1018.1 hPa | 0 mm | - | - | - |
| 1777843388 | 25.56° C | 32% | 1018 hPa | 0 mm | - | - | - |
| 1777843085 | 25.56° C | 31% | 1018.4 hPa | 0 mm | - | - | - |
| 1777842781 | 26.11° C | 33% | 1018.4 hPa | 0 mm | - | - | - |
| 1777842481 | 26.11° C | 33% | 1018.4 hPa | 0 mm | - | - | - |
| 1777842179 | 25.56° C | 33% | 1018.4 hPa | 0 mm | - | - | - |
| 1777841874 | 25.56° C | 36% | 1018.5 hPa | 0 mm | - | - | - |
| 1777841571 | 25° C | 36% | 1018.5 hPa | 0 mm | - | - | - |
| 1777841267 | 25.56° C | 34% | 1018.6 hPa | 0 mm | - | - | - |
| 1777840965 | 25.56° C | 34% | 1018.5 hPa | 0 mm | - | - | - |
| 1777840662 | 25.56° C | 33% | 1018.5 hPa | 0 mm | - | - | - |
| 1777840359 | 25° C | 32% | 1018.6 hPa | 0 mm | - | - | - |
| 1777840056 | 25° C | 33% | 1018.7 hPa | 0 mm | - | - | - |
| 1777839754 | 25.56° C | 33% | 1018.7 hPa | 0 mm | - | - | - |
| 1777839452 | 25.56° C | 33% | 1018.9 hPa | 0 mm | - | - | - |
| 1777839149 | 25.56° C | 33% | 1018.8 hPa | 0 mm | - | - | - |
| 1777838846 | 25.56° C | 33% | 1018.8 hPa | 0 mm | - | - | - |
* Rain latest hour (hover to see other rain measurements)
** Current wind speed in m/s (hover to see current wind gust speed)